Home   Weather   Tacoma   Past weeks

Flag for USA Past Weather in Tacoma, Washington, USA — Yesterday and Last 2 Weeks

Now
47 °F

Broken clouds.


Feels Like: 45 °F
Forecast: 44 / 55 °F
Wind: 5 mph from Southeast

Location: Tacoma Narrows Airport

Current Time: Apr 25, 2017 at 9:52:44 am

Latest Report: Apr 25, 2017 at 8:53 am


Visibility: 10 mi

Pressure: 29.96 "Hg

Humidity: 90%

Dew Point: 44 °F

Location of TacomaLocation

Past Weather in Tacoma — Graph

°F

Tacoma Temperature Yesterday

Maximum temperature yesterday: 50 °F (at 2:53 pm)
Minimum temperature yesterday: 44 °F (at 2:23 am)
Average temperature yesterday: 47 °F

High & Low Weather Summary for the Past Weeks

 TemperatureHumidityPressure
High64 °F (Apr 21, 4:53 pm)100% (Apr 11, 6:53 am)30.43 "Hg (Apr 11, 6:53 am)
Low37 °F (Apr 11, 3:53 am)37% (Apr 15, 5:53 pm)29.62 "Hg (Apr 12, 5:53 am)
Average49 °F82%29.98 "Hg
* Reported Apr 10 7:53 am — Apr 25 7:53 am, Tacoma, Weather by CustomWeather, © 2017

Note: Actual official high and low records may vary slightly from our data, if they occured in-between our weather recording intervals... More about our weather records

Advertising

Tacoma Weather History for the Previous 24 Hours

Scroll right to see more
 ConditionsComfort  
Time TempWeatherWind HumidityBarometerVisibility
7:53 am
Tue, Apr 25
47 °FCloudy.8 mph90%30.00 "Hg10 mi
7:28 am47 °FMostly cloudy.10 mph86%30.00 "Hg10 mi
6:53 am46 °FMore clouds than sun.6 mph89%29.98 "Hg10 mi
5:53 am46 °FLight rain. Mostly cloudy.6 mph89%29.96 "Hg10 mi
4:53 am46 °FMostly cloudy.6 mph89%29.96 "Hg10 mi
4:36 am46 °FOvercast.6 mph93%29.96 "Hg10 mi
3:53 am46 °FMostly cloudy.9 mph93%29.97 "Hg10 mi
3:08 am46 °FMostly cloudy.9 mph93%29.98 "Hg10 mi
2:53 am45 °FOvercast.8 mph97%29.98 "Hg10 mi
1:53 am46 °FOvercast.8 mph96%29.96 "Hg10 mi
1:16 am46 °FPassing clouds.9 mph93%29.95 "Hg10 mi
12:53 am46 °FClear.8 mph93%29.95 "Hg10 mi
12:31 am46 °FPassing clouds.8 mph96%29.94 "Hg10 mi
11:53 pm
Mon, Apr 24
48 °FOvercast.7 mph89%29.94 "Hg10 mi
10:53 pm48 °FOvercast.6 mph93%29.93 "Hg10 mi
9:53 pm48 °FLight rain. Overcast.9 mph96%29.91 "Hg10 mi
8:53 pm49 °FLight rain. Mostly cloudy.8 mph90%29.88 "Hg10 mi
8:13 pm50 °FMostly cloudy.7 mph83%29.85 "Hg10 mi
7:53 pm50 °FCloudy.9 mph83%29.85 "Hg10 mi
6:53 pm49 °FScattered clouds.8 mph90%29.83 "Hg10 mi
5:53 pm50 °FBroken clouds.7 mph89%29.80 "Hg10 mi
4:53 pm50 °FBroken clouds.7 mph86%29.79 "Hg10 mi
3:53 pm49 °FBroken clouds.6 mph93%29.77 "Hg10 mi
2:53 pm50 °FLight rain. More clouds than sun.5 mph86%29.77 "Hg10 mi
1:53 pm49 °FLight rain. More clouds than sun.6 mph86%29.74 "Hg10 mi
12:53 pm48 °FCloudy.3 mph89%29.73 "Hg10 mi
11:53 am48 °FLight rain. Cloudy.5 mph86%29.73 "Hg10 mi
10:53 am47 °FLight rain. Cloudy.6 mph86%29.74 "Hg10 mi
9:53 am46 °FCloudy.7 mph93%29.72 "Hg10 mi
Weather by CustomWeather, © 2017

See weather overviewHow to use our weather pages